TimeEDT,TemperatureF,Dew PointF,Humidity,Sea Level PressureIn,VisibilityMPH,Wind Direction,Wind SpeedMPH,Gust SpeedMPH,PrecipitationIn,Events,Conditions,WindDirDegrees,DateUTC
12:53 AM,80.1,75.9,87,29.92,10.0,Calm,Calm,-,N/A,,Partly Cloudy,0,2013-09-13 04:53:00
1:53 AM,79.0,75.9,90,29.91,10.0,NW,4.6,-,N/A,,Clear,310,2013-09-13 05:53:00
2:53 AM,77.0,75.9,96,29.90,10.0,NW,3.5,-,N/A,,Clear,310,2013-09-13 06:53:00
3:53 AM,77.0,75.0,94,29.89,10.0,Calm,Calm,-,N/A,,Clear,0,2013-09-13 07:53:00
4:53 AM,75.9,75.0,97,29.89,10.0,Calm,Calm,-,N/A,,Clear,0,2013-09-13 08:53:00
5:53 AM,75.0,75.0,100,29.89,10.0,Calm,Calm,-,N/A,,Clear,0,2013-09-13 09:53:00
6:53 AM,75.9,75.0,97,29.90,10.0,Calm,Calm,-,N/A,,Clear,0,2013-09-13 10:53:00
7:53 AM,77.0,75.9,96,29.92,10.0,Calm,Calm,-,N/A,,Clear,0,2013-09-13 11:53:00
8:53 AM,81.0,77.0,88,29.92,10.0,Calm,Calm,-,N/A,,Clear,0,2013-09-13 12:53:00
9:53 AM,84.0,73.9,72,29.92,10.0,Calm,Calm,-,N/A,,Clear,0,2013-09-13 13:53:00
10:53 AM,87.1,72.0,61,29.92,10.0,Variable,3.5,-,N/A,,Clear,0,2013-09-13 14:53:00
11:53 AM,86.0,70.0,59,29.92,10.0,Variable,3.5,-,N/A,,Clear,0,2013-09-13 15:53:00
12:53 PM,90.0,71.1,54,29.91,10.0,NNW,5.8,-,N/A,,Mostly Cloudy,330,2013-09-13 16:53:00
1:53 PM,91.0,72.0,53,29.88,10.0,ENE,6.9,16.1,N/A,,Scattered Clouds,70,2013-09-13 17:53:00
2:53 PM,89.1,73.0,59,29.86,10.0,SSE,5.8,-,N/A,,Scattered Clouds,150,2013-09-13 18:53:00
3:53 PM,87.1,73.0,63,29.84,10.0,SE,9.2,-,N/A,,Mostly Cloudy,140,2013-09-13 19:53:00
4:53 PM,87.1,69.1,55,29.84,10.0,SE,9.2,-,0.00,,Overcast,140,2013-09-13 20:53:00
5:53 PM,87.1,69.1,55,29.83,10.0,ESE,11.5,-,N/A,,Clear,120,2013-09-13 21:53:00
6:53 PM,84.9,71.1,63,29.85,10.0,ESE,9.2,-,N/A,,Clear,120,2013-09-13 22:53:00
7:53 PM,82.9,72.0,69,29.86,10.0,ESE,6.9,-,N/A,,Clear,120,2013-09-13 23:53:00
8:53 PM,82.9,73.9,74,29.87,10.0,ESE,8.1,-,N/A,,Clear,120,2013-09-14 00:53:00
9:53 PM,82.0,73.9,76,29.89,10.0,SE,5.8,-,N/A,,Clear,130,2013-09-14 01:53:00
10:53 PM,81.0,73.9,79,29.89,10.0,SSE,3.5,-,N/A,,Clear,150,2013-09-14 02:53:00
11:53 PM,81.0,73.9,79,29.89,10.0,Calm,Calm,-,N/A,,Clear,0,2013-09-14 03:53:00